Time,TemperatureF,DewpointF,PressureIn,WindDirection,WindDirectionDegrees,WindSpeedMPH,WindSpeedGustMPH,Humidity,HourlyPrecipIn,Conditions,Clouds,dailyrainin,SoftwareType,DateUTC
2013-03-12 00:00:00,73.8,71.0,29.80,SW,222,1.0,3.0,91,0.00,BKN,,0.00,WeatherDisplay:10.37,2013-03-11 14:00:00,
2013-03-12 00:05:00,73.9,71.1,29.80,SW,230,1.0,3.0,91,0.00,BKN,,0.00,WeatherDisplay:10.37,2013-03-11 14:05:00,
2013-03-12 00:10:00,74.0,71.2,29.80,SW,227,0.0,4.0,91,0.00,BKN,,0.00,WeatherDisplay:10.37,2013-03-11 14:10:00,
2013-03-12 00:15:00,74.1,71.3,29.80,SW,221,0.0,3.0,91,0.00,BKN,,0.00,WeatherDisplay:10.37,2013-03-11 14:15:00,
2013-03-12 00:20:00,74.1,71.3,29.80,SW,214,1.0,6.0,91,0.00,BKN,,0.00,WeatherDisplay:10.37,2013-03-11 14:20:00,
2013-03-12 00:25:00,74.2,71.0,29.80,SW,226,1.0,6.0,90,0.00,BKN,,0.00,WeatherDisplay:10.37,2013-03-11 14:25:00,
2013-03-12 00:30:00,74.1,71.0,29.79,SW,221,2.0,9.0,90,0.00,BKN,,0.00,WeatherDisplay:10.37,2013-03-11 14:30:00,
2013-03-12 00:40:00,74.1,71.0,29.79,SW,225,1.0,6.0,90,0.00,BKN,,0.00,WeatherDisplay:10.37,2013-03-11 14:40:00,
2013-03-12 00:45:00,74.0,70.9,29.80,SW,233,1.0,6.0,90,0.00,BKN,,0.00,WeatherDisplay:10.37,2013-03-11 14:45:00,
2013-03-12 00:55:00,73.7,70.6,29.80,SW,230,1.0,5.0,90,0.00,BKN,,0.00,WeatherDisplay:10.37,2013-03-11 14:55:00,
2013-03-12 01:00:00,73.6,70.5,29.80,SW,225,0.0,1.0,90,0.05,RA,,0.05,WeatherDisplay:10.37,2013-03-11 15:00:00,
2013-03-12 01:10:00,73.3,70.2,29.78,WSW,240,2.0,4.0,90,0.01,RA,,0.08,WeatherDisplay:10.37,2013-03-11 15:10:00,
2013-03-12 01:15:00,73.2,70.1,29.78,WSW,246,2.0,6.0,90,0.00,RA,,0.08,WeatherDisplay:10.37,2013-03-11 15:15:00,
2013-03-12 01:20:00,73.1,70.3,29.78,WSW,240,2.0,5.0,91,0.00,RA,,0.08,WeatherDisplay:10.37,2013-03-11 15:20:00,
2013-03-12 01:25:00,73.1,70.3,29.78,SW,235,1.0,4.0,91,0.00,RA,,0.08,WeatherDisplay:10.37,2013-03-11 15:25:00,
2013-03-12 01:30:00,73.2,70.4,29.78,SW,230,2.0,6.0,91,0.00,RA,,0.08,WeatherDisplay:10.37,2013-03-11 15:30:00,
2013-03-12 01:35:00,73.2,70.4,29.78,SW,221,1.0,6.0,91,0.00,RA,,0.08,WeatherDisplay:10.37,2013-03-11 15:35:00,
2013-03-12 01:45:00,73.3,70.5,29.77,SW,223,1.0,4.0,91,0.00,RA,,0.08,WeatherDisplay:10.37,2013-03-11 15:45:00,
2013-03-12 01:50:00,73.3,70.5,29.77,SW,228,1.0,10.0,91,0.00,RA,,0.08,WeatherDisplay:10.37,2013-03-11 15:50:00,
2013-03-12 01:55:00,73.2,70.4,29.77,WSW,243,0.0,5.0,91,0.00,RA,,0.08,WeatherDisplay:10.37,2013-03-11 15:55:00,
2013-03-12 02:00:00,73.1,70.3,29.77,WSW,247,0.0,1.0,91,0.00,RA,,0.08,WeatherDisplay:10.37,2013-03-11 16:00:00,
2013-03-12 02:10:00,73.2,70.4,29.76,SW,226,0.0,4.0,91,0.00,RA,,0.08,WeatherDisplay:10.37,2013-03-11 16:10:00,
2013-03-12 02:15:00,73.3,70.5,29.76,SW,223,0.0,4.0,91,0.00,RA,,0.08,WeatherDisplay:10.37,2013-03-11 16:15:00,
2013-03-12 02:20:00,73.3,70.5,29.76,SW,236,0.0,3.0,91,0.00,RA,,0.08,WeatherDisplay:10.37,2013-03-11 16:20:00,
2013-03-12 02:25:00,73.3,70.5,29.76,WSW,241,0.0,3.0,91,0.00,RA,,0.08,WeatherDisplay:10.37,2013-03-11 16:25:00,
2013-03-12 02:30:00,81.1,75.1,29.87,North,0,0.0,0.0,82,0.00,BKN,,0.00,WeatherDisplay:10.37,2013-03-11 16:30:00,
2013-03-12 02:35:00,73.3,70.6,29.75,WSW,240,0.0,1.0,91,0.00,RA,,0.08,WeatherDisplay:10.37,2013-03-11 16:35:00,
2013-03-12 02:40:00,73.4,70.6,29.75,SW,236,0.0,1.0,91,0.00,RA,,0.08,WeatherDisplay:10.37,2013-03-11 16:40:00,
2013-03-12 02:45:00,81.1,75.1,29.87,North,0,0.0,0.0,82,0.00,BKN,,0.00,WeatherDisplay:10.37,2013-03-11 16:45:00,
2013-03-12 02:50:00,73.5,70.7,29.74,SW,222,1.0,5.0,91,0.00,RA,,0.08,WeatherDisplay:10.37,2013-03-11 16:50:00,
2013-03-12 02:55:00,73.6,70.8,29.74,SW,225,0.0,2.0,91,0.00,RA,,0.08,WeatherDisplay:10.37,2013-03-11 16:55:00,
2013-03-12 03:00:00,73.6,70.9,29.74,SW,217,0.0,4.0,91,0.00,RA,,0.08,WeatherDisplay:10.37,2013-03-11 17:00:00,
2013-03-12 03:10:00,73.7,70.9,29.74,WSW,242,0.0,3.0,91,0.00,RA,,0.08,WeatherDisplay:10.37,2013-03-11 17:10:00,
2013-03-12 03:15:00,73.7,70.9,29.74,WSW,241,0.0,2.0,91,0.00,RA,,0.08,WeatherDisplay:10.37,2013-03-11 17:15:00,
2013-03-12 03:20:00,73.7,70.9,29.74,WSW,240,0.0,3.0,91,0.00,RA,,0.08,WeatherDisplay:10.37,2013-03-11 17:20:00,
2013-03-12 03:25:00,73.8,71.0,29.74,WSW,237,0.0,2.0,91,0.00,RA,,0.08,WeatherDisplay:10.37,2013-03-11 17:25:00,
2013-03-12 03:30:00,73.8,71.0,29.74,SW,232,1.0,5.0,91,0.02,RA,,0.10,WeatherDisplay:10.37,2013-03-11 17:30:00,
2013-03-12 03:35:00,73.8,71.0,29.74,SW,236,0.0,3.0,91,0.00,RA,,0.10,WeatherDisplay:10.37,2013-03-11 17:35:00,
2013-03-12 03:40:00,73.8,71.0,29.74,WSW,242,0.0,3.0,91,0.00,RA,,0.10,WeatherDisplay:10.37,2013-03-11 17:40:00,
2013-03-12 03:50:00,73.7,71.2,29.74,SW,229,0.0,2.0,92,0.00,RA,,0.10,WeatherDisplay:10.37,2013-03-11 17:50:00,
2013-03-12 03:55:00,73.7,71.2,29.74,SW,235,0.0,3.0,92,0.00,RA,,0.10,WeatherDisplay:10.37,2013-03-11 17:55:00,
2013-03-12 04:00:00,73.7,71.2,29.74,SW,226,0.0,1.0,92,0.00,RA,,0.10,WeatherDisplay:10.37,2013-03-11 18:00:00,
2013-03-12 04:10:00,73.7,71.2,29.74,SSW,194,0.0,3.0,92,0.00,RA,,0.10,WeatherDisplay:10.37,2013-03-11 18:10:00,
2013-03-12 04:15:00,73.6,71.1,29.75,SSW,196,0.0,3.0,92,0.00,RA,,0.10,WeatherDisplay:10.37,2013-03-11 18:15:00,
2013-03-12 04:20:00,73.7,71.2,29.75,SSW,203,0.0,2.0,92,0.00,RA,,0.10,WeatherDisplay:10.37,2013-03-11 18:20:00,
2013-03-12 04:25:00,73.7,71.2,29.74,SW,218,0.0,5.0,92,0.00,RA,,0.10,WeatherDisplay:10.37,2013-03-11 18:25:00,
2013-03-12 04:30:00,73.7,71.2,29.74,SW,227,1.0,4.0,92,0.00,RA,,0.10,WeatherDisplay:10.37,2013-03-11 18:30:00,
2013-03-12 04:35:00,73.7,71.2,29.74,SSW,209,0.0,4.0,92,0.00,RA,,0.10,WeatherDisplay:10.37,2013-03-11 18:35:00,
2013-03-12 04:40:00,73.7,71.2,29.74,SSW,209,1.0,6.0,92,0.00,RA,,0.10,WeatherDisplay:10.37,2013-03-11 18:40:00,
2013-03-12 04:45:00,73.7,71.2,29.75,SW,221,2.0,4.0,92,0.00,RA,,0.10,WeatherDisplay:10.37,2013-03-11 18:45:00,
2013-03-12 04:50:00,73.7,71.2,29.75,SW,214,1.0,3.0,92,0.00,RA,,0.10,WeatherDisplay:10.37,2013-03-11 18:50:00,
2013-03-12 04:55:00,73.7,71.2,29.75,SW,218,0.0,3.0,92,0.00,RA,,0.10,WeatherDisplay:10.37,2013-03-11 18:55:00,
2013-03-12 05:00:00,73.7,71.2,29.75,SW,220,1.0,3.0,92,0.00,RA,,0.10,WeatherDisplay:10.37,2013-03-11 19:00:00,
2013-03-12 05:10:00,73.7,71.2,29.75,SSW,213,0.0,5.0,92,0.00,RA,,0.10,WeatherDisplay:10.37,2013-03-11 19:10:00,
2013-03-12 05:15:00,73.7,71.2,29.75,SW,220,0.0,3.0,92,0.00,RA,,0.10,WeatherDisplay:10.37,2013-03-11 19:15:00,
2013-03-12 05:20:00,73.6,71.1,29.75,SSW,206,0.0,4.0,92,0.00,RA,,0.10,WeatherDisplay:10.37,2013-03-11 19:20:00,
2013-03-12 05:30:00,73.5,71.0,29.75,SW,217,1.0,3.0,92,0.00,RA,,0.10,WeatherDisplay:10.37,2013-03-11 19:30:00,
2013-03-12 05:35:00,73.4,71.0,29.75,SW,215,0.0,4.0,92,0.00,RA,,0.10,WeatherDisplay:10.37,2013-03-11 19:35:00,
2013-03-12 05:45:00,73.4,70.6,29.76,SW,228,1.0,4.0,91,0.00,RA,,0.10,WeatherDisplay:10.37,2013-03-11 19:45:00,
2013-03-12 05:50:00,73.4,70.6,29.76,SSW,212,0.0,4.0,91,0.00,RA,,0.10,WeatherDisplay:10.37,2013-03-11 19:50:00,
2013-03-12 05:55:00,73.3,70.5,29.76,SSW,192,0.0,5.0,91,0.00,RA,,0.10,WeatherDisplay:10.37,2013-03-11 19:55:00,
2013-03-12 06:00:00,73.3,70.5,29.76,SSW,206,1.0,4.0,91,0.00,RA,,0.10,WeatherDisplay:10.37,2013-03-11 20:00:00,
2013-03-12 06:10:00,73.3,70.5,29.76,SW,233,0.0,2.0,91,0.00,RA,,0.10,WeatherDisplay:10.37,2013-03-11 20:10:00,
2013-03-12 06:15:00,73.2,70.5,29.77,SW,227,0.0,3.0,91,0.00,RA,,0.10,WeatherDisplay:10.37,2013-03-11 20:15:00,
2013-03-12 06:20:00,73.3,70.5,29.76,SW,225,0.0,3.0,91,0.00,RA,,0.10,WeatherDisplay:10.37,2013-03-11 20:20:00,
2013-03-12 06:25:00,73.2,70.4,29.76,SW,219,0.0,3.0,91,0.00,RA,,0.10,WeatherDisplay:10.37,2013-03-11 20:25:00,
2013-03-12 06:30:00,73.2,70.4,29.75,SSW,212,0.0,3.0,91,0.00,RA,,0.10,WeatherDisplay:10.37,2013-03-11 20:30:00,
2013-03-12 06:35:00,73.2,70.4,29.76,SSW,207,1.0,3.0,91,0.00,RA,,0.10,WeatherDisplay:10.37,2013-03-11 20:35:00,
2013-03-12 06:40:00,73.2,70.4,29.76,SSW,193,0.0,3.0,91,0.00,RA,,0.10,WeatherDisplay:10.37,2013-03-11 20:40:00,
2013-03-12 06:45:00,73.3,70.5,29.76,SSW,194,0.0,3.0,91,0.00,RA,,0.10,WeatherDisplay:10.37,2013-03-11 20:45:00,
2013-03-12 06:55:00,73.5,70.7,29.76,South,173,0.0,3.0,91,0.00,RA,,0.10,WeatherDisplay:10.37,2013-03-11 20:55:00,
2013-03-12 07:00:00,73.5,70.7,29.76,South,180,0.0,2.0,91,0.00,RA,,0.10,WeatherDisplay:10.37,2013-03-11 21:00:00,
2013-03-12 07:05:00,73.6,70.8,29.76,SSW,206,0.0,3.0,91,0.00,RA,,0.10,WeatherDisplay:10.37,2013-03-11 21:05:00,
2013-03-12 07:10:00,73.9,71.1,29.77,SW,224,1.0,3.0,91,0.00,RA,,0.10,WeatherDisplay:10.37,2013-03-11 21:10:00,
2013-03-12 07:15:00,74.2,71.4,29.77,WSW,245,0.0,4.0,91,0.00,RA,,0.10,WeatherDisplay:10.37,2013-03-11 21:15:00,
2013-03-12 07:20:00,74.4,71.6,29.77,WSW,237,1.0,4.0,91,0.00,RA,,0.10,WeatherDisplay:10.37,2013-03-11 21:20:00,
2013-03-12 07:25:00,74.7,71.9,29.77,SW,220,1.0,5.0,91,0.00,RA,,0.10,WeatherDisplay:10.37,2013-03-11 21:25:00,
2013-03-12 07:30:00,74.8,72.0,29.77,SW,220,1.0,3.0,91,0.00,RA,,0.10,WeatherDisplay:10.37,2013-03-11 21:30:00,
2013-03-12 07:35:00,74.9,72.1,29.78,SSW,196,0.0,3.0,91,0.00,RA,,0.10,WeatherDisplay:10.37,2013-03-11 21:35:00,
2013-03-12 07:40:00,74.9,71.8,29.78,SSW,194,0.0,6.0,90,0.00,RA,,0.10,WeatherDisplay:10.37,2013-03-11 21:40:00,
2013-03-12 07:45:00,75.1,72.0,29.78,South,175,1.0,5.0,90,0.00,RA,,0.10,WeatherDisplay:10.37,2013-03-11 21:45:00,
2013-03-12 07:50:00,75.3,72.1,29.78,South,188,0.0,7.0,90,0.00,RA,,0.10,WeatherDisplay:10.37,2013-03-11 21:50:00,
2013-03-12 07:55:00,75.5,72.4,29.78,South,188,0.0,4.0,90,0.00,RA,,0.10,WeatherDisplay:10.37,2013-03-11 21:55:00,
2013-03-12 08:00:00,75.6,72.5,29.78,South,180,1.0,4.0,90,0.00,RA,,0.10,WeatherDisplay:10.37,2013-03-11 22:00:00,
2013-03-12 08:10:00,75.6,72.4,29.79,SW,228,1.0,3.0,90,0.00,RA,,0.10,WeatherDisplay:10.37,2013-03-11 22:10:00,
2013-03-12 08:15:00,75.6,72.5,29.79,SW,218,0.0,2.0,90,0.00,RA,,0.10,WeatherDisplay:10.37,2013-03-11 22:15:00,
2013-03-12 08:20:00,75.7,72.6,29.79,SW,222,0.0,4.0,90,0.00,RA,,0.10,WeatherDisplay:10.37,2013-03-11 22:20:00,
2013-03-12 08:25:00,75.8,72.7,29.79,SW,236,1.0,5.0,90,0.01,RA,,0.11,WeatherDisplay:10.37,2013-03-11 22:25:00,
2013-03-12 08:30:00,76.0,72.9,29.79,SW,226,0.0,3.0,90,0.00,RA,,0.11,WeatherDisplay:10.37,2013-03-11 22:30:00,
2013-03-12 08:35:00,76.0,72.9,29.79,SW,216,0.0,3.0,90,0.00,RA,,0.11,WeatherDisplay:10.37,2013-03-11 22:35:00,
2013-03-12 08:40:00,76.0,72.9,29.80,SW,232,0.0,4.0,90,0.00,RA,,0.11,WeatherDisplay:10.37,2013-03-11 22:40:00,
2013-03-12 08:45:00,76.0,72.9,29.81,WSW,237,0.0,3.0,90,0.00,RA,,0.11,WeatherDisplay:10.37,2013-03-11 22:45:00,
2013-03-12 08:50:00,76.0,72.8,29.81,South,174,0.0,3.0,90,0.02,RA,,0.13,WeatherDisplay:10.37,2013-03-11 22:50:00,
2013-03-12 08:55:00,76.0,72.5,29.81,SSE,155,0.0,2.0,89,0.04,RA,,0.17,WeatherDisplay:10.37,2013-03-11 22:55:00,
2013-03-12 09:00:00,75.9,72.8,29.80,SSW,194,0.0,2.0,90,0.00,RA,,0.17,WeatherDisplay:10.37,2013-03-11 23:00:00,
2013-03-12 09:10:00,76.1,72.9,29.80,SW,214,0.0,0.0,90,0.00,RA,,0.17,WeatherDisplay:10.37,2013-03-11 23:10:00,
2013-03-12 09:20:00,76.4,73.6,29.80,SW,218,1.0,5.0,91,0.00,RA,,0.17,WeatherDisplay:10.37,2013-03-11 23:20:00,
2013-03-12 09:25:00,76.6,73.8,29.79,SW,221,0.0,2.0,91,0.00,RA,,0.17,WeatherDisplay:10.37,2013-03-11 23:25:00,
2013-03-12 09:30:00,76.8,74.0,29.80,SW,223,0.0,3.0,91,0.00,RA,,0.17,WeatherDisplay:10.37,2013-03-11 23:30:00,
2013-03-12 09:35:00,76.7,73.5,29.80,SW,232,0.0,2.0,90,0.00,RA,,0.17,WeatherDisplay:10.37,2013-03-11 23:35:00,
2013-03-12 09:40:00,76.9,73.7,29.80,SW,220,1.0,3.0,90,0.00,RA,,0.17,WeatherDisplay:10.37,2013-03-11 23:40:00,
2013-03-12 09:45:00,77.1,73.9,29.80,East,85,2.0,6.0,90,0.00,RA,,0.17,WeatherDisplay:10.37,2013-03-11 23:45:00,
2013-03-12 09:50:00,77.2,74.0,29.81,East,81,8.0,13.0,90,0.01,RA,,0.18,WeatherDisplay:10.37,2013-03-11 23:50:00,
2013-03-12 09:55:00,77.1,73.6,29.80,East,83,0.0,6.0,89,0.02,RA,,0.20,WeatherDisplay:10.37,2013-03-11 23:55:00,
2013-03-12 10:00:00,77.2,74.0,29.80,East,87,0.0,1.0,90,0.00,RA,,0.20,WeatherDisplay:10.37,2013-03-12 00:00:00,
2013-03-12 10:10:00,77.7,74.6,29.80,East,87,0.0,2.0,90,0.00,RA,,0.20,WeatherDisplay:10.37,2013-03-12 00:10:00,
2013-03-12 10:15:00,78.0,74.8,29.79,East,88,0.0,2.0,90,0.00,RA,,0.20,WeatherDisplay:10.37,2013-03-12 00:15:00,
2013-03-12 10:20:00,78.2,75.0,29.79,East,89,0.0,3.0,90,0.00,RA,,0.20,WeatherDisplay:10.37,2013-03-12 00:20:00,
2013-03-12 10:25:00,78.5,75.3,29.79,East,89,0.0,2.0,90,0.00,RA,,0.20,WeatherDisplay:10.37,2013-03-12 00:25:00,
2013-03-12 10:30:00,78.7,75.2,29.79,ESE,102,1.0,3.0,89,0.00,RA,,0.20,WeatherDisplay:10.37,2013-03-12 00:30:00,
2013-03-12 10:35:00,78.8,74.6,29.79,SE,146,3.0,15.0,87,0.00,RA,,0.20,WeatherDisplay:10.37,2013-03-12 00:35:00,
2013-03-12 10:40:00,78.9,74.4,29.79,South,178,2.0,6.0,86,0.01,RA,,0.20,WeatherDisplay:10.37,2013-03-12 00:40:00,
2013-03-12 10:45:00,79.0,74.5,29.78,SSW,209,2.0,7.0,86,0.00,RA,,0.20,WeatherDisplay:10.37,2013-03-12 00:45:00,
2013-03-12 10:50:00,79.1,74.5,29.78,SW,222,1.0,6.0,86,0.00,RA,,0.20,WeatherDisplay:10.37,2013-03-12 00:50:00,
2013-03-12 10:55:00,79.3,74.4,29.78,SSW,206,2.0,10.0,85,0.00,RA,,0.20,WeatherDisplay:10.37,2013-03-12 00:55:00,
2013-03-12 11:00:00,79.5,74.3,29.78,South,191,2.0,10.0,84,0.00,RA,,0.20,WeatherDisplay:10.37,2013-03-12 01:00:00,
2013-03-12 11:10:00,80.9,75.3,29.77,South,174,1.0,6.0,83,0.00,RA,,0.20,WeatherDisplay:10.37,2013-03-12 01:10:00,
2013-03-12 11:15:00,82.1,75.7,29.77,SSE,161,3.0,12.0,81,0.00,RA,,0.20,WeatherDisplay:10.37,2013-03-12 01:15:00,
2013-03-12 11:20:00,83.3,76.5,29.77,South,177,5.0,9.0,80,0.00,RA,,0.20,WeatherDisplay:10.37,2013-03-12 01:20:00,
2013-03-12 11:25:00,83.8,76.2,29.77,South,188,2.0,10.0,78,0.00,RA,,0.20,WeatherDisplay:10.37,2013-03-12 01:25:00,
2013-03-12 11:30:00,84.2,76.2,29.76,South,179,2.0,12.0,77,0.00,RA,,0.20,WeatherDisplay:10.37,2013-03-12 01:30:00,
2013-03-12 11:35:00,84.6,76.6,29.76,SSE,160,5.0,9.0,77,0.00,RA,,0.20,WeatherDisplay:10.37,2013-03-12 01:35:00,
2013-03-12 11:40:00,84.7,75.9,29.76,SE,143,2.0,5.0,75,0.00,RA,,0.20,WeatherDisplay:10.37,2013-03-12 01:40:00,
2013-03-12 11:45:00,84.8,76.0,29.76,SSE,148,5.0,12.0,75,0.00,RA,,0.20,WeatherDisplay:10.37,2013-03-12 01:45:00,
2013-03-12 11:50:00,84.8,75.6,29.75,South,169,5.0,12.0,74,0.00,RA,,0.20,WeatherDisplay:10.37,2013-03-12 01:50:00,
2013-03-12 11:55:00,85.2,75.6,29.75,South,176,2.0,7.0,73,0.00,RA,,0.20,WeatherDisplay:10.37,2013-03-12 01:55:00,
2013-03-12 12:00:00,85.5,75.9,29.75,SSW,201,1.0,6.0,73,0.00,RA,,0.20,WeatherDisplay:10.37,2013-03-12 02:00:00,
2013-03-12 12:05:00,85.6,75.9,29.75,SSE,166,2.0,13.0,73,0.00,RA,,0.20,WeatherDisplay:10.37,2013-03-12 02:05:00,
2013-03-12 12:10:00,85.8,75.8,29.75,SE,129,2.0,7.0,72,0.00,RA,,0.20,WeatherDisplay:10.37,2013-03-12 02:10:00,
2013-03-12 12:15:00,86.1,76.8,29.75,SE,130,3.0,12.0,74,0.00,RA,,0.20,WeatherDisplay:10.37,2013-03-12 02:15:00,
2013-03-12 12:20:00,85.9,76.2,29.75,South,170,3.0,10.0,73,0.00,RA,,0.20,WeatherDisplay:10.37,2013-03-12 02:20:00,
2013-03-12 12:30:00,84.3,75.5,29.74,South,190,1.0,10.0,75,0.00,RA,,0.20,WeatherDisplay:10.37,2013-03-12 02:30:00,
2013-03-12 12:35:00,83.7,75.3,29.74,South,181,1.0,6.0,76,0.00,RA,,0.20,WeatherDisplay:10.37,2013-03-12 02:35:00,
2013-03-12 12:40:00,83.3,74.9,29.74,SE,141,1.0,7.0,76,0.00,RA,,0.20,WeatherDisplay:10.37,2013-03-12 02:40:00,
2013-03-12 12:45:00,83.3,75.7,29.74,East,94,2.0,7.0,78,0.00,RA,,0.20,WeatherDisplay:10.37,2013-03-12 02:45:00,
2013-03-12 12:50:00,83.4,75.8,29.74,East,89,1.0,5.0,78,0.00,RA,,0.20,WeatherDisplay:10.37,2013-03-12 02:50:00,
2013-03-12 12:55:00,83.7,76.1,29.74,East,93,0.0,4.0,78,0.00,RA,,0.20,WeatherDisplay:10.37,2013-03-12 02:55:00,
2013-03-12 13:00:00,83.8,75.8,29.74,East,87,1.0,9.0,77,0.00,RA,,0.20,WeatherDisplay:10.37,2013-03-12 03:00:00,
2013-03-12 13:10:00,81.9,74.7,29.74,East,100,0.0,6.0,79,0.00,RA,,0.21,WeatherDisplay:10.37,2013-03-12 03:10:00,
2013-03-12 13:15:00,81.2,75.2,29.74,ENE,75,0.0,2.0,82,0.00,RA,,0.21,WeatherDisplay:10.37,2013-03-12 03:15:00,
2013-03-12 13:20:00,80.8,75.1,29.73,ESE,105,1.0,7.0,83,0.01,RA,,0.22,WeatherDisplay:10.37,2013-03-12 03:20:00,
2013-03-12 13:25:00,80.5,74.9,29.73,SSE,148,2.0,7.0,83,0.00,RA,,0.22,WeatherDisplay:10.37,2013-03-12 03:25:00,
2013-03-12 13:30:00,80.5,74.1,29.73,SE,145,5.0,10.0,81,0.00,RA,,0.22,WeatherDisplay:10.37,2013-03-12 03:30:00,
2013-03-12 13:35:00,80.3,73.1,29.73,SSE,166,2.0,9.0,79,0.00,RA,,0.22,WeatherDisplay:10.37,2013-03-12 03:35:00,
2013-03-12 13:40:00,80.0,72.9,29.73,South,185,2.0,10.0,79,0.00,RA,,0.22,WeatherDisplay:10.37,2013-03-12 03:40:00,
2013-03-12 13:45:00,79.8,73.1,29.73,South,173,0.0,10.0,80,0.00,RA,,0.22,WeatherDisplay:10.37,2013-03-12 03:45:00,
2013-03-12 13:50:00,80.1,73.4,29.73,SE,135,1.0,9.0,80,0.00,RA,,0.22,WeatherDisplay:10.37,2013-03-12 03:50:00,
2013-03-12 13:55:00,80.8,74.4,29.73,SE,126,1.0,9.0,81,0.00,RA,,0.22,WeatherDisplay:10.37,2013-03-12 03:55:00,
2013-03-12 14:00:00,81.0,74.6,29.73,SSW,203,1.0,9.0,81,0.00,RA,,0.22,WeatherDisplay:10.37,2013-03-12 04:00:00,
2013-03-12 14:05:00,80.3,74.0,29.73,SSW,192,1.0,8.0,81,0.01,RA,,0.23,WeatherDisplay:10.37,2013-03-12 04:05:00,
2013-03-12 14:10:00,79.7,74.1,29.73,SSE,155,0.0,5.0,83,0.01,RA,,0.24,WeatherDisplay:10.37,2013-03-12 04:10:00,
2013-03-12 14:15:00,79.5,74.2,29.73,South,179,1.0,3.0,84,0.00,RA,,0.24,WeatherDisplay:10.37,2013-03-12 04:15:00,
2013-03-12 14:20:00,79.4,74.5,29.73,South,180,1.0,4.0,85,0.02,RA,,0.26,WeatherDisplay:10.37,2013-03-12 04:20:00,
2013-03-12 14:25:00,78.8,73.9,29.73,SSE,165,0.0,4.0,85,0.02,RA,,0.28,WeatherDisplay:10.37,2013-03-12 04:25:00,
2013-03-12 14:30:00,78.5,74.0,29.72,South,180,0.0,3.0,86,0.01,RA,,0.29,WeatherDisplay:10.37,2013-03-12 04:30:00,
2013-03-12 14:35:00,78.5,74.3,29.72,SW,216,0.0,1.0,87,0.00,RA,,0.29,WeatherDisplay:10.37,2013-03-12 04:35:00,
2013-03-12 14:40:00,78.6,74.7,29.72,SW,224,0.0,4.0,88,0.00,RA,,0.29,WeatherDisplay:10.37,2013-03-12 04:40:00,
2013-03-12 14:45:00,78.6,74.4,29.72,SW,222,1.0,3.0,87,0.00,RA,,0.29,WeatherDisplay:10.37,2013-03-12 04:45:00,
2013-03-12 14:50:00,78.9,75.1,29.71,WSW,239,0.0,2.0,88,0.00,RA,,0.29,WeatherDisplay:10.37,2013-03-12 04:50:00,
2013-03-12 14:55:00,79.3,75.1,29.72,South,183,1.0,5.0,87,0.00,RA,,0.29,WeatherDisplay:10.37,2013-03-12 04:55:00,
2013-03-12 15:00:00,79.4,74.5,29.71,SSE,154,2.0,7.0,85,0.00,RA,,0.29,WeatherDisplay:10.37,2013-03-12 05:00:00,
2013-03-12 15:05:00,79.1,73.5,29.71,South,169,1.0,9.0,83,0.00,RA,,0.29,WeatherDisplay:10.37,2013-03-12 05:05:00,
2013-03-12 15:10:00,78.9,73.7,29.71,SSE,151,1.0,10.0,84,0.00,RA,,0.29,WeatherDisplay:10.37,2013-03-12 05:10:00,
2013-03-12 15:15:00,79.1,73.8,29.71,SE,140,2.0,7.0,84,0.00,RA,,0.29,WeatherDisplay:10.37,2013-03-12 05:15:00,
2013-03-12 15:20:00,79.4,74.1,29.71,SE,134,1.0,6.0,84,0.00,RA,,0.29,WeatherDisplay:10.37,2013-03-12 05:20:00,
2013-03-12 15:25:00,79.7,74.4,29.70,SSE,155,1.0,4.0,84,0.00,RA,,0.29,WeatherDisplay:10.37,2013-03-12 05:25:00,
2013-03-12 15:35:00,80.5,75.2,29.70,South,178,1.0,5.0,84,0.00,RA,,0.29,WeatherDisplay:10.37,2013-03-12 05:35:00,
2013-03-12 15:40:00,80.6,75.0,29.70,SE,141,1.0,6.0,83,0.00,RA,,0.29,WeatherDisplay:10.37,2013-03-12 05:40:00,
2013-03-12 15:45:00,80.6,74.6,29.70,SE,146,1.0,6.0,82,0.00,RA,,0.29,WeatherDisplay:10.37,2013-03-12 05:45:00,
2013-03-12 15:50:00,80.2,74.2,29.70,SSE,165,1.0,7.0,82,0.00,RA,,0.29,WeatherDisplay:10.37,2013-03-12 05:50:00,
2013-03-12 16:00:00,79.6,73.6,29.70,ESE,122,0.0,6.0,82,0.00,RA,,0.29,WeatherDisplay:10.37,2013-03-12 06:00:00,
2013-03-12 16:10:00,79.8,74.2,29.71,SE,145,0.0,4.0,83,0.00,RA,,0.29,WeatherDisplay:10.37,2013-03-12 06:10:00,
2013-03-12 16:15:00,80.1,74.1,29.71,ESE,106,0.0,12.0,82,0.00,RA,,0.29,WeatherDisplay:10.37,2013-03-12 06:15:00,
2013-03-12 16:20:00,80.4,74.4,29.71,ESE,122,1.0,5.0,82,0.00,RA,,0.29,WeatherDisplay:10.37,2013-03-12 06:20:00,
2013-03-12 16:25:00,80.5,74.1,29.71,SSW,192,2.0,6.0,81,0.00,RA,,0.29,WeatherDisplay:10.37,2013-03-12 06:25:00,
2013-03-12 16:30:00,80.6,73.9,29.71,SW,227,0.0,5.0,80,0.00,RA,,0.29,WeatherDisplay:10.37,2013-03-12 06:30:00,
2013-03-12 16:35:00,80.8,74.0,29.71,SW,223,0.0,5.0,80,0.00,RA,,0.29,WeatherDisplay:10.37,2013-03-12 06:35:00,
2013-03-12 16:40:00,80.9,73.8,29.71,South,182,2.0,7.0,79,0.00,RA,,0.29,WeatherDisplay:10.37,2013-03-12 06:40:00,
2013-03-12 16:50:00,81.1,74.0,29.71,South,186,1.0,5.0,79,0.00,RA,,0.29,WeatherDisplay:10.37,2013-03-12 06:50:00,
2013-03-12 16:55:00,81.1,74.0,29.70,SSE,153,0.0,9.0,79,0.00,RA,,0.29,WeatherDisplay:10.37,2013-03-12 06:55:00,
2013-03-12 17:00:00,81.1,74.0,29.71,SE,124,1.0,4.0,79,0.00,RA,,0.29,WeatherDisplay:10.37,2013-03-12 07:00:00,
2013-03-12 17:10:00,81.2,73.7,29.71,SSE,163,1.0,10.0,78,0.00,RA,,0.29,WeatherDisplay:10.37,2013-03-12 07:10:00,
2013-03-12 17:20:00,81.3,73.8,29.71,South,187,0.0,3.0,78,0.00,RA,,0.29,WeatherDisplay:10.37,2013-03-12 07:20:00,
2013-03-12 17:25:00,81.2,73.7,29.71,SSW,195,2.0,6.0,78,0.00,RA,,0.29,WeatherDisplay:10.37,2013-03-12 07:25:00,
2013-03-12 17:35:00,80.9,73.8,29.71,SSE,151,1.0,5.0,79,0.00,RA,,0.29,WeatherDisplay:10.37,2013-03-12 07:35:00,
2013-03-12 17:40:00,80.7,74.0,29.71,South,179,0.0,6.0,80,0.00,RA,,0.29,WeatherDisplay:10.37,2013-03-12 07:40:00,
2013-03-12 17:45:00,80.7,73.9,29.71,South,181,0.0,3.0,80,0.00,RA,,0.29,WeatherDisplay:10.37,2013-03-12 07:45:00,
2013-03-12 17:55:00,80.3,73.6,29.72,South,173,1.0,5.0,80,0.00,RA,,0.29,WeatherDisplay:10.37,2013-03-12 07:55:00,
2013-03-12 18:00:00,80.3,73.9,29.72,SE,143,0.0,4.0,81,0.00,RA,,0.29,WeatherDisplay:10.37,2013-03-12 08:00:00,
2013-03-12 18:10:00,80.1,73.7,29.72,SSE,164,0.0,3.0,81,0.00,RA,,0.29,WeatherDisplay:10.37,2013-03-12 08:10:00,
2013-03-12 18:15:00,79.9,73.5,29.73,SSE,157,1.0,9.0,81,0.00,RA,,0.29,WeatherDisplay:10.37,2013-03-12 08:15:00,
2013-03-12 18:20:00,79.8,73.4,29.73,SSE,153,1.0,5.0,81,0.00,RA,,0.29,WeatherDisplay:10.37,2013-03-12 08:20:00,
2013-03-12 18:25:00,79.6,73.3,29.73,South,186,1.0,4.0,81,0.00,RA,,0.29,WeatherDisplay:10.37,2013-03-12 08:25:00,
2013-03-12 18:30:00,79.5,73.5,29.73,SSE,157,0.0,5.0,82,0.00,RA,,0.29,WeatherDisplay:10.37,2013-03-12 08:30:00,
2013-03-12 18:35:00,79.4,73.4,29.73,ESE,123,0.0,4.0,82,0.00,RA,,0.29,WeatherDisplay:10.37,2013-03-12 08:35:00,
2013-03-12 18:40:00,79.3,73.3,29.73,SE,136,2.0,6.0,82,0.00,RA,,0.29,WeatherDisplay:10.37,2013-03-12 08:40:00,
2013-03-12 18:45:00,79.2,73.2,29.73,SE,145,0.0,3.0,82,0.00,RA,,0.29,WeatherDisplay:10.37,2013-03-12 08:45:00,
2013-03-12 18:50:00,79.2,73.2,29.74,SSE,155,0.0,3.0,82,0.00,RA,,0.29,WeatherDisplay:10.37,2013-03-12 08:50:00,
2013-03-12 18:55:00,79.1,73.1,29.74,South,183,0.0,3.0,82,0.00,RA,,0.29,WeatherDisplay:10.37,2013-03-12 08:55:00,
2013-03-12 19:00:00,79.0,73.4,29.74,SW,217,0.0,2.0,83,0.00,RA,,0.29,WeatherDisplay:10.37,2013-03-12 09:00:00,
2013-03-12 19:10:00,78.9,73.3,29.74,SSE,165,0.0,6.0,83,0.00,RA,,0.29,WeatherDisplay:10.37,2013-03-12 09:10:00,
2013-03-12 19:15:00,79.0,73.0,29.75,South,185,0.0,3.0,82,0.00,RA,,0.29,WeatherDisplay:10.37,2013-03-12 09:15:00,
2013-03-12 19:25:00,79.0,73.0,29.75,SE,142,0.0,3.0,82,0.00,RA,,0.29,WeatherDisplay:10.37,2013-03-12 09:25:00,
2013-03-12 19:30:00,79.0,73.4,29.75,SSE,165,1.0,4.0,83,0.00,RA,,0.29,WeatherDisplay:10.37,2013-03-12 09:30:00,
2013-03-12 19:35:00,78.9,72.9,29.75,SSE,150,0.0,5.0,82,0.00,RA,,0.29,WeatherDisplay:10.37,2013-03-12 09:35:00,
2013-03-12 19:40:00,78.6,72.6,29.75,SE,145,0.0,7.0,82,0.00,RA,,0.29,WeatherDisplay:10.37,2013-03-12 09:40:00,
2013-03-12 19:45:00,78.3,72.3,29.75,South,181,0.0,4.0,82,0.00,RA,,0.29,WeatherDisplay:10.37,2013-03-12 09:45:00,
2013-03-12 19:50:00,78.1,71.8,29.75,South,184,0.0,5.0,81,0.00,RA,,0.29,WeatherDisplay:10.37,2013-03-12 09:50:00,
2013-03-12 19:55:00,78.0,72.1,29.76,South,183,0.0,3.0,82,0.00,RA,,0.29,WeatherDisplay:10.37,2013-03-12 09:55:00,
2013-03-12 20:00:00,78.0,72.4,29.76,South,179,0.0,3.0,83,0.00,RA,,0.29,WeatherDisplay:10.37,2013-03-12 10:00:00,
2013-03-12 20:10:00,77.8,72.2,29.76,South,184,0.0,2.0,83,0.00,RA,,0.29,WeatherDisplay:10.37,2013-03-12 10:10:00,
2013-03-12 20:15:00,77.6,72.0,29.76,SSW,210,1.0,3.0,83,0.00,RA,,0.29,WeatherDisplay:10.37,2013-03-12 10:15:00,
2013-03-12 20:20:00,77.2,71.7,29.77,SW,225,2.0,9.0,83,0.00,RA,,0.29,WeatherDisplay:10.37,2013-03-12 10:20:00,
2013-03-12 20:25:00,76.7,71.2,29.77,SW,225,2.0,8.0,83,0.00,RA,,0.29,WeatherDisplay:10.37,2013-03-12 10:25:00,
2013-03-12 20:30:00,76.3,71.1,29.77,SW,224,2.0,12.0,84,0.00,RA,,0.29,WeatherDisplay:10.37,2013-03-12 10:30:00,
2013-03-12 20:35:00,76.0,70.8,29.77,SW,214,1.0,7.0,84,0.00,RA,,0.29,WeatherDisplay:10.37,2013-03-12 10:35:00,
2013-03-12 20:45:00,75.2,70.7,29.77,SW,232,1.0,5.0,86,0.00,RA,,0.30,WeatherDisplay:10.37,2013-03-12 10:45:00,
2013-03-12 20:50:00,75.0,70.8,29.77,SW,221,2.0,7.0,87,0.00,RA,,0.30,WeatherDisplay:10.37,2013-03-12 10:50:00,
2013-03-12 20:55:00,74.9,71.1,29.77,SW,227,0.0,4.0,88,0.00,RA,,0.30,WeatherDisplay:10.37,2013-03-12 10:55:00,
2013-03-12 21:00:00,74.8,71.0,29.77,SW,221,0.0,3.0,88,0.00,RA,,0.30,WeatherDisplay:10.37,2013-03-12 11:00:00,
2013-03-12 21:05:00,74.8,71.0,29.77,SW,222,0.0,2.0,88,0.00,RA,,0.30,WeatherDisplay:10.37,2013-03-12 11:05:00,
2013-03-12 21:10:00,74.8,71.0,29.77,SW,223,1.0,3.0,88,0.00,RA,,0.30,WeatherDisplay:10.37,2013-03-12 11:10:00,
2013-03-12 21:15:00,74.9,71.1,29.77,SW,223,1.0,5.0,88,0.00,RA,,0.30,WeatherDisplay:10.37,2013-03-12 11:15:00,
2013-03-12 21:20:00,74.9,71.1,29.77,SW,215,1.0,4.0,88,0.00,RA,,0.30,WeatherDisplay:10.37,2013-03-12 11:20:00,
2013-03-12 21:25:00,75.0,71.2,29.78,SSW,202,3.0,12.0,88,0.00,RA,,0.30,WeatherDisplay:10.37,2013-03-12 11:25:00,
2013-03-12 21:30:00,74.9,71.1,29.77,SW,219,2.0,7.0,88,0.01,RA,,0.31,WeatherDisplay:10.37,2013-03-12 11:30:00,
2013-03-12 21:35:00,74.8,71.3,29.77,SW,231,0.0,9.0,89,0.00,RA,,0.31,WeatherDisplay:10.37,2013-03-12 11:35:00,
2013-03-12 21:40:00,74.6,71.1,29.77,SW,230,1.0,3.0,89,0.00,RA,,0.31,WeatherDisplay:10.37,2013-03-12 11:40:00,
2013-03-12 21:45:00,74.3,70.8,29.77,SW,218,0.0,3.0,89,0.00,RA,,0.31,WeatherDisplay:10.37,2013-03-12 11:45:00,
2013-03-12 21:50:00,74.3,70.8,29.78,SW,226,1.0,4.0,89,0.00,RA,,0.31,WeatherDisplay:10.37,2013-03-12 11:50:00,
2013-03-12 21:55:00,74.3,71.2,29.77,SW,235,0.0,4.0,90,0.00,RA,,0.31,WeatherDisplay:10.37,2013-03-12 11:55:00,
2013-03-12 22:00:00,74.2,71.1,29.77,SW,217,2.0,7.0,90,0.00,RA,,0.31,WeatherDisplay:10.37,2013-03-12 12:00:00,
2013-03-12 22:10:00,74.1,71.0,29.77,SW,217,1.0,5.0,90,0.00,RA,,0.31,WeatherDisplay:10.37,2013-03-12 12:10:00,
2013-03-12 22:15:00,74.1,71.0,29.77,SW,223,0.0,4.0,90,0.00,RA,,0.31,WeatherDisplay:10.37,2013-03-12 12:15:00,
2013-03-12 22:20:00,74.1,71.0,29.77,SW,219,1.0,5.0,90,0.00,RA,,0.31,WeatherDisplay:10.37,2013-03-12 12:20:00,
2013-03-12 22:25:00,74.1,71.0,29.77,SSW,198,1.0,3.0,90,0.00,RA,,0.31,WeatherDisplay:10.37,2013-03-12 12:25:00,
2013-03-12 22:30:00,74.0,70.9,29.77,South,171,1.0,4.0,90,0.00,RA,,0.31,WeatherDisplay:10.37,2013-03-12 12:30:00,
2013-03-12 22:35:00,74.0,70.9,29.77,South,177,0.0,4.0,90,0.00,RA,,0.31,WeatherDisplay:10.37,2013-03-12 12:35:00,
2013-03-12 22:40:00,74.0,70.9,29.76,SSW,203,0.0,1.0,90,0.00,RA,,0.31,WeatherDisplay:10.37,2013-03-12 12:40:00,
2013-03-12 22:45:00,74.0,70.9,29.76,SSW,207,0.0,3.0,90,0.00,RA,,0.31,WeatherDisplay:10.37,2013-03-12 12:45:00,
2013-03-12 22:50:00,74.0,70.9,29.76,SW,214,0.0,2.0,90,0.00,RA,,0.31,WeatherDisplay:10.37,2013-03-12 12:50:00,
2013-03-12 22:55:00,74.0,70.9,29.76,SW,216,0.0,2.0,90,0.00,RA,,0.31,WeatherDisplay:10.37,2013-03-12 12:55:00,
2013-03-12 23:00:00,74.0,70.9,29.76,SSW,207,1.0,3.0,90,0.00,RA,,0.31,WeatherDisplay:10.37,2013-03-12 13:00:00,
2013-03-12 23:05:00,74.0,70.9,29.76,SSW,207,0.0,3.0,90,0.00,RA,,0.31,WeatherDisplay:10.37,2013-03-12 13:05:00,
2013-03-12 23:10:00,74.1,71.0,29.76,SW,225,1.0,3.0,90,0.00,RA,,0.31,WeatherDisplay:10.37,2013-03-12 13:10:00,
2013-03-12 23:15:00,74.2,71.1,29.76,SW,224,1.0,6.0,90,0.00,RA,,0.31,WeatherDisplay:10.37,2013-03-12 13:15:00,
2013-03-12 23:20:00,74.3,71.2,29.76,SW,214,1.0,6.0,90,0.00,RA,,0.31,WeatherDisplay:10.37,2013-03-12 13:20:00,
2013-03-12 23:25:00,74.4,71.2,29.76,SW,218,2.0,6.0,90,0.00,RA,,0.31,WeatherDisplay:10.37,2013-03-12 13:25:00,
2013-03-12 23:30:00,74.3,71.2,29.75,SW,220,1.0,9.0,90,0.00,RA,,0.31,WeatherDisplay:10.37,2013-03-12 13:30:00,
2013-03-12 23:35:00,74.4,71.3,29.75,SW,229,2.0,8.0,90,0.00,RA,,0.31,WeatherDisplay:10.37,2013-03-12 13:35:00,
2013-03-12 23:40:00,74.4,71.3,29.75,SW,232,1.0,5.0,90,0.00,RA,,0.31,WeatherDisplay:10.37,2013-03-12 13:40:00,
2013-03-12 23:45:00,74.2,70.7,29.75,SW,221,1.0,4.0,89,0.00,RA,,0.31,WeatherDisplay:10.37,2013-03-12 13:45:00,
2013-03-12 23:50:00,74.0,70.6,29.75,SW,220,1.0,6.0,89,0.00,RA,,0.31,WeatherDisplay:10.37,2013-03-12 13:50:00,
2013-03-12 23:55:00,74.0,70.5,29.74,SW,235,0.0,6.0,89,0.00,RA,,0.31,WeatherDisplay:10.37,2013-03-12 13:55:00,